TimePDT,TemperatureF,Dew PointF,Humidity,Sea Level PressureIn,VisibilityMPH,Wind Direction,Wind SpeedMPH,Gust SpeedMPH,PrecipitationIn,Events,Conditions,WindDirDegrees,DateUTC
12:53 AM,57.9,55.0,90,29.89,10.0,Calm,Calm,-,N/A,,Clear,0,2013-08-28 07:53:00
1:53 AM,55.9,53.1,90,29.88,10.0,Calm,Calm,-,N/A,,Clear,0,2013-08-28 08:53:00
2:53 AM,54.0,51.1,90,29.88,10.0,Calm,Calm,-,N/A,,Clear,0,2013-08-28 09:53:00
3:53 AM,54.0,52.0,93,29.88,10.0,Calm,Calm,-,N/A,,Clear,0,2013-08-28 10:53:00
4:51 AM,51.8,50.0,94,29.88,2.5,Calm,Calm,-,N/A,,Partly Cloudy,0,2013-08-28 11:51:00
4:53 AM,52.0,50.0,93,29.88,1.2,Calm,Calm,-,N/A,,Partly Cloudy,0,2013-08-28 11:53:00
4:56 AM,53.6,50.0,88,29.88,0.8,Calm,Calm,-,N/A,,Mist,0,2013-08-28 11:56:00
5:08 AM,53.6,50.0,88,29.88,1.2,Calm,Calm,-,N/A,,Partly Cloudy,0,2013-08-28 12:08:00
5:11 AM,53.6,51.8,94,29.88,2.5,Calm,Calm,-,N/A,,Partly Cloudy,0,2013-08-28 12:11:00
5:18 AM,51.8,51.8,100,29.88,10.0,Calm,Calm,-,N/A,,Clear,0,2013-08-28 12:18:00
5:49 AM,53.6,50.0,88,29.88,10.0,North,3.5,-,N/A,,Scattered Clouds,10,2013-08-28 12:49:00
5:53 AM,53.1,50.0,89,29.88,10.0,Calm,Calm,-,N/A,,Scattered Clouds,0,2013-08-28 12:53:00
6:53 AM,53.1,50.0,89,29.90,10.0,Calm,Calm,-,N/A,,Clear,0,2013-08-28 13:53:00
7:53 AM,59.0,54.0,83,29.91,10.0,Calm,Calm,-,N/A,,Clear,0,2013-08-28 14:53:00
8:53 AM,64.0,55.0,73,29.92,10.0,Calm,Calm,-,N/A,,Clear,0,2013-08-28 15:53:00
9:53 AM,70.0,55.0,59,29.92,10.0,Variable,3.5,-,N/A,,Clear,0,2013-08-28 16:53:00
10:53 AM,73.0,55.9,55,29.93,10.0,Variable,5.8,-,N/A,,Clear,0,2013-08-28 17:53:00
11:53 AM,75.0,54.0,48,29.93,10.0,SSW,5.8,-,N/A,,Clear,200,2013-08-28 18:53:00
12:53 PM,75.9,55.0,48,29.91,10.0,South,6.9,-,N/A,,Clear,190,2013-08-28 19:53:00
1:53 PM,78.1,55.9,46,29.91,10.0,South,6.9,-,N/A,,Clear,180,2013-08-28 20:53:00
2:53 PM,78.1,55.9,46,29.90,10.0,SSW,5.8,-,N/A,,Clear,200,2013-08-28 21:53:00
3:53 PM,75.0,59.0,57,29.90,10.0,SE,9.2,-,N/A,,Clear,130,2013-08-28 22:53:00
4:53 PM,68.0,57.9,70,29.91,10.0,SE,6.9,-,N/A,,Clear,140,2013-08-28 23:53:00
5:24 PM,66.2,57.2,73,29.91,10.0,SE,8.1,-,N/A,,Partly Cloudy,130,2013-08-29 00:24:00
5:53 PM,64.0,57.9,80,29.91,10.0,ESE,6.9,-,N/A,,Mostly Cloudy,110,2013-08-29 00:53:00
6:53 PM,63.0,57.9,84,29.91,10.0,East,9.2,-,N/A,,Overcast,100,2013-08-29 01:53:00
7:12 PM,62.6,59.0,88,29.92,9.0,ESE,8.1,-,N/A,,Overcast,110,2013-08-29 02:12:00
7:53 PM,62.1,59.0,90,29.92,10.0,East,9.2,-,N/A,,Overcast,100,2013-08-29 02:53:00
8:53 PM,62.1,59.0,90,29.94,10.0,East,6.9,-,N/A,,Overcast,90,2013-08-29 03:53:00
9:53 PM,62.1,59.0,90,29.95,10.0,ESE,5.8,-,N/A,,Overcast,110,2013-08-29 04:53:00
10:53 PM,62.1,59.0,90,29.96,10.0,NE,4.6,-,N/A,,Overcast,40,2013-08-29 05:53:00
11:53 PM,61.0,59.0,93,29.97,10.0,NNE,3.5,-,N/A,,Overcast,30,2013-08-29 06:53:00